Location: Bannatyne
(13.0833°N, 59.5333°W)
Time: 10:04:01
(UTC+00:00)

Vanguard 2 Rocket - Pass Details

Date: 28 January 2020
Orbit: 554 x 3326 km, 32.9° (Epoch: 28 March)

Event Time Altitude Azimuth Distance (km) Brightness Sun altitude
Rises 17:43:07 0° 267° (W) 5,728 11.3 51.3°
Reaches altitude 10° 17:47:57 10° 252° (WSW) 5,159 11.4 50.6°
Maximum altitude 17:58:55 22° 209° (SSW) 4,953 11.9 48.9°
Drops below altitude 10° 18:12:17 10° 166° (SSE) 6,276 11.6 46.7°
Sets 18:19:24 0° 152° (SSE) 7,263 11.7 45.5°
